[[{"header":{"parameterUnit":"m.s-1","parameterCategory":2,"la1":30.2991,"la2":30.254,"lo1":-89.0895,"lo2":-89.0444,"dy":0.0017,"dx":0.0017,"nx":28,"ny":28,"refTime":"2024-12-14T03:00:00:Z","depth":"0","parameterNumber":2,"parameterNumberName":"U-component_of_CURRENTS"},"data":[0,0,0,0,0,0,0,0,0,0,0,0,0,0,0,0,0,0,0,0,0,0,0,0,0,0,0,0,0,0,0,0,0,0,0,0,0,0,0,0,0,0,0,0,0,0,0,0,0,0,0,0,0,0,0,0,0,0,0.2948,0.2949,0,0.2988,0.2988,0.2988,0.2985,0.2984,0.2984,0.2984,0.2973,0.2973,0.2973,0,0,0,0,0,0,0,0,0,0,0,0,0,0.286,0.2862,0.2948,0.2949,0.295,0.2988,0.2988,0.2988,0.2985,0.2984,0.2984,0.2984,0.2973,0.2973,0.2973,0,0,0,0,0,0,0,0,0,0,0,0,0,0.2896,0.2862,0.2948,0.2955,0.2957,0.2988,0.2988,0.2989,0.2985,0.2984,0.2984,0.2984,0.2973,0.2973,0.2973,0.2981,0,0,0.2973,0.2973,0,0,0,0,0,0,0,0,0.2894,0.2898,0.2953,0.2955,0.2956,0.2984,0.2954,0.2985,0.2985,0.297,0.2984,0.2983,0.2975,0.2975,0.2979,0.2981,0.298,0.2973,0.2973,0.2973,0.2973,0,0,0,0,0,0,0,0.2891,0.2897,0.296,0.2954,0.2956,0.2954,0.2958,0.2959,0.297,0.2971,0.2972,0.2983,0.2975,0.2979,0.2978,0.298,0.2973,0.2973,0.2973,0.2973,0.3026,0.3027,0,0,0,0,0,0,0.2895,0.2895,0.2959,0.2962,0.2928,0.2956,0.2961,0.2973,0.2972,0.2973,0.2983,0.2982,0.2979,0.2978,0.2978,0.3018,0.2973,0.2973,0.2973,0.3024,0.3026,0.3028,0,0,0,0,0,0,0.2893,0.29,0.2957,0.2932,0.2939,0.2959,0.2972,0.2974,0.2981,0.2982,0.2981,0.2989,0.2979,0.2978,0.2989,0.3016,0.2973,0.2973,0.3023,0.3025,0.3027,0.3077,0,0,0,0,0,0,0.289,0.2899,0.2907,0.2932,0.2941,0.2982,0.2973,0.2975,0.299,0.2989,0.2987,0.2985,0.2978,0.2989,0.2989,0.3015,0.2973,0.3021,0.3024,0.3026,0.3074,0.3081,0.3087,0,0,0,0,0,0.2887,0.2901,0.2907,0.2915,0.2952,0.2984,0.2988,0.2997,0.2991,0.3,0.3,0.2985,0.3007,0.299,0.299,0.3016,0.302,0.3023,0.3026,0.3071,0.308,0.3087,0,0,0,0,0,0,0.2862,0.2903,0.291,0.2934,0.296,0.2984,0.2996,0.3001,0.3008,0.3006,0.2998,0.2997,0.3018,0.3012,0.2994,0.3041,0.3013,0.3016,0.3048,0.3056,0.3062,0.3058,0.2973,0,0,0,0,0,0.2863,0.2886,0.2921,0.294,0.2956,0.2976,0.2989,0.2998,0.3011,0.3014,0.3014,0.3018,0.3032,0.3038,0.3043,0.3065,0.3072,0.3085,0.3091,0.3097,0.3095,0.3138,0.3149,0.3038,0.3038,0.3038,0,0,0.2857,0.2885,0.2896,0.2937,0.2957,0.2982,0.2982,0.3008,0.3027,0.3011,0.3031,0.3037,0.3042,0.307,0.308,0.3067,0.3134,0.3101,0.3105,0.31,0.3143,0.3153,0.3163,0.304,0.304,0.304,0,0,0.2859,0.2885,0.2904,0.2932,0.2971,0.2989,0.2999,0.3028,0.304,0.3064,0.3063,0.3085,0.3097,0.3114,0.3122,0.3168,0.3165,0.3174,0.3206,0.3249,0.3259,0.3267,0.3297,0.3308,0.3181,0.3181,0.3181,0,0.2848,0.2882,0.2913,0.2942,0.2966,0.2993,0.3017,0.3039,0.3066,0.3084,0.3075,0.3121,0.312,0.3167,0.3183,0.3183,0.3202,0.3174,0.3258,0.3266,0.3273,0.3303,0.3314,0.3184,0.3183,0.3183,0.3183,0,0.2869,0.2895,0.2912,0.2958,0.2986,0.3015,0.3055,0.308,0.3097,0.312,0.3167,0.3178,0.3205,0.3218,0.3211,0.3272,0.3268,0.3259,0.3236,0.3288,0.3315,0.3326,0.3188,0.3187,0.3186,0.3185,0,0,0.2827,0.2911,0.2911,0.2937,0.3,0.3022,0.3068,0.3118,0.3149,0.3183,0.3228,0.326,0.3271,0.3282,0.329,0.3327,0.3396,0.3317,0.3318,0.3344,0.3491,0.3479,0.3489,0.3407,0.3409,0.341,0.3492,0,0.2828,0.288,0.2925,0.2967,0.2995,0.3048,0.3091,0.314,0.318,0.3231,0.327,0.3312,0.3297,0.3319,0.3355,0.3389,0.3425,0.3374,0.3439,0.3441,0.3422,0.3501,0.3433,0.35,0.3502,0.3504,0.3505,0,0.2816,0.2859,0.2906,0.298,0.2998,0.303,0.3104,0.315,0.3234,0.3269,0.3325,0.3355,0.3422,0.3397,0.3484,0.3456,0.3473,0.3494,0.3497,0.3472,0.3449,0.3448,0.3518,0.3485,0.3521,0.3519,0.3518,0,0.2756,0.2833,0.2872,0.2899,0.2993,0.3023,0.3072,0.3155,0.3194,0.3297,0.3334,0.3419,0.3463,0.3512,0.3551,0.3528,0.3643,0.3616,0.362,0.3618,0.3565,0.3556,0.3605,0.3671,0.3671,0.367,0.367,0,0.2729,0.2751,0.2848,0.2866,0.2904,0.2993,0.3038,0.3101,0.32,0.3249,0.3345,0.34,0.3494,0.3565,0.3589,0.3648,0.3676,0.3642,0.3649,0.3581,0.3573,0.3542,0.3505,0.3673,0.3673,0.3672,0.3672,0,0.2644,0.2715,0.275,0.2848,0.2872,0.2895,0.2986,0.3029,0.3139,0.3209,0.3246,0.34,0.3513,0.3593,0.3692,0.3694,0.3674,0.3754,0.3666,0.366,0.362,0.3587,0.3478,0.3364,0.3781,0.3782,0.3782,0,0.2608,0.2626,0.2699,0.2714,0.2754,0.2805,0.2843,0.2965,0.3021,0.3197,0.3232,0.3387,0.348,0.3646,0.3715,0.3791,0.3675,0.3742,0.368,0.3629,0.3598,0.3439,0.3337,0.3632,0.3631,0.363,0.363,0,0.2531,0.2558,0.2589,0.2617,0.2649,0.2677,0.2752,0.2782,0.2942,0.3024,0.3162,0.3265,0.3478,0.3572,0.37,0.3726,0.3603,0.3727,0.3704,0.3516,0.3315,0.3204,0.356,0.3623,0.3623,0.3624,0.3624,0.3624,0.2455,0.2451,0.2494,0.2508,0.2539,0.2552,0.254,0.2651,0.2721,0.2842,0.3023,0.3156,0.3412,0.3611,0.3616,0.3648,0.3554,0.3588,0.3564,0.3415,0.3263,0.3601,0.3651,0.3651,0.3652,0.3653,0.3653,0,0.2358,0.2372,0.2387,0.2398,0.2385,0.2436,0.248,0.2467,0.2512,0.2701,0.282,0.3097,0.3262,0.3442,0.3618,0.3536,0.3338,0.3446,0.3222,0.3135,0.3493,0.3449,0.3422,0.3422,0.3422,0.3422,0.3422,0.3422,0.2304,0.2283,0.2294,0.224,0.2248,0.2187,0.2178,0.2192,0.2296,0.2438,0.2612,0.2809,0.3251,0.3594,0.3629,0.3512,0.3217,0.309,0.3021,0.3335,0.3346,0.3356,0.3309,0.3252,0.3251,0.2553,0.2548,0.2544]},{"header":{"parameterUnit":"m.s-1","parameterCategory":2,"la1":30.2991,"la2":30.254,"lo1":-89.0895,"lo2":-89.0444,"dy":0.0017,"dx":0.0017,"nx":28,"ny":28,"refTime":"2024-12-14T03:00:00:Z","depth":"0","parameterNumber":3,"parameterNumberName":"V-component_of_CURRENTS"},"data":[0,0,0,0,0,0,0,0,0,0,0,0,0,0,0,0,0,0,0,0,0,0,0,0,0,0,0,0,0,0,0,0,0,0,0,0,0,0,0,0,0,0,0,0,0,0,0,0,0,0,0,0,0,0,0,0,0,0,-0.036,-0.0361,0,-0.0453,-0.0454,-0.0455,-0.0517,-0.0518,-0.0518,-0.0518,-0.064,-0.0643,-0.0646,0,0,0,0,0,0,0,0,0,0,0,0,0,-0.028,-0.0281,-0.036,-0.0361,-0.0362,-0.0453,-0.0454,-0.0456,-0.0517,-0.0518,-0.0518,-0.0518,-0.0639,-0.0643,-0.0646,0,0,0,0,0,0,0,0,0,0,0,0,0,-0.0339,-0.0281,-0.036,-0.0402,-0.0407,-0.0452,-0.0454,-0.0456,-0.0517,-0.0518,-0.0518,-0.0518,-0.0638,-0.0642,-0.0647,-0.0666,0,0,-0.066,-0.0662,0,0,0,0,0,0,0,0,-0.0336,-0.0342,-0.0395,-0.04,-0.0405,-0.0472,-0.047,-0.0527,-0.0517,-0.0477,-0.0518,-0.0519,-0.0585,-0.0594,-0.0613,-0.0672,-0.0677,-0.0661,-0.0663,-0.0665,-0.0667,0,0,0,0,0,0,0,-0.0332,-0.0339,-0.0399,-0.0396,-0.0402,-0.0432,-0.044,-0.0482,-0.053,-0.0481,-0.0485,-0.0492,-0.0588,-0.0608,-0.0616,-0.0679,-0.0661,-0.0665,-0.0667,-0.0669,-0.0764,-0.0764,0,0,0,0,0,0,-0.0314,-0.0335,-0.0396,-0.0401,-0.0369,-0.0433,-0.0442,-0.0452,-0.0529,-0.054,-0.0492,-0.0495,-0.06,-0.0611,-0.0621,-0.0638,-0.0665,-0.067,-0.0672,-0.0764,-0.0764,-0.0764,0,0,0,0,0,0,-0.0312,-0.0319,-0.0392,-0.0369,-0.038,-0.0433,-0.0443,-0.0453,-0.047,-0.0537,-0.0549,-0.0498,-0.0601,-0.0614,-0.0649,-0.0644,-0.0672,-0.0676,-0.0765,-0.0764,-0.0764,-0.0681,0,0,0,0,0,0,-0.0309,-0.0317,-0.0316,-0.0367,-0.038,-0.0408,-0.0443,-0.0455,-0.0473,-0.0478,-0.0546,-0.0558,-0.0602,-0.0642,-0.0653,-0.0651,-0.0679,-0.0765,-0.0764,-0.0764,-0.0684,-0.0678,-0.0673,0,0,0,0,0,-0.0306,-0.0303,-0.0316,-0.0323,-0.0378,-0.0407,-0.0416,-0.0457,-0.0473,-0.0475,-0.0519,-0.0555,-0.0649,-0.0645,-0.0659,-0.0657,-0.0765,-0.0765,-0.0764,-0.0686,-0.0679,-0.0673,0,0,0,0,0,0,-0.0267,-0.0311,-0.0326,-0.0336,-0.0363,-0.0417,-0.0423,-0.0448,-0.0486,-0.049,-0.0552,-0.0567,-0.0597,-0.0638,-0.0632,-0.0684,-0.0713,-0.0716,-0.0649,-0.0643,-0.0638,-0.0613,-0.0683,0,0,0,0,0,-0.0256,-0.0265,-0.0308,-0.0313,-0.0324,-0.037,-0.0386,-0.0411,-0.0451,-0.0468,-0.0515,-0.0565,-0.0608,-0.0631,-0.0675,-0.0701,-0.0726,-0.071,-0.0704,-0.0699,-0.0689,-0.0722,-0.0718,-0.0763,-0.0763,-0.0763,0,0,-0.0241,-0.0265,-0.0271,-0.0304,-0.033,-0.0337,-0.0381,-0.0398,-0.0404,-0.0475,-0.0497,-0.0547,-0.061,-0.064,-0.0657,-0.0672,-0.0698,-0.0699,-0.0694,-0.0686,-0.0722,-0.0717,-0.0713,-0.0762,-0.0762,-0.0763,0,0,-0.0211,-0.0236,-0.0232,-0.025,-0.028,-0.0307,-0.0306,-0.0353,-0.0375,-0.0402,-0.0454,-0.0493,-0.0561,-0.0602,-0.0632,-0.0621,-0.0666,-0.0641,-0.0594,-0.0626,-0.0623,-0.062,-0.0631,-0.063,-0.0639,-0.0639,-0.0638,0,-0.0189,-0.0193,-0.0233,-0.0231,-0.0237,-0.0287,-0.0276,-0.0306,-0.0357,-0.0368,-0.0396,-0.0486,-0.0541,-0.0575,-0.0576,-0.0608,-0.0627,-0.0612,-0.0617,-0.0615,-0.0613,-0.0626,-0.0626,-0.0634,-0.0635,-0.0635,-0.0636,0,-0.0158,-0.0159,-0.0156,-0.0169,-0.0179,-0.0179,-0.0217,-0.023,-0.0262,-0.0296,-0.0334,-0.041,-0.046,-0.049,-0.0533,-0.0551,-0.0567,-0.0603,-0.0628,-0.0603,-0.0619,-0.062,-0.0629,-0.063,-0.0631,-0.0632,0,0,-0.0106,-0.0129,-0.0125,-0.0114,-0.0144,-0.0143,-0.0149,-0.0166,-0.0158,-0.0224,-0.0224,-0.0313,-0.0354,-0.0391,-0.0453,-0.0489,-0.0498,-0.0536,-0.054,-0.0535,-0.0551,-0.0562,-0.0564,-0.0535,-0.0535,-0.0535,-0.0561,0,-0.0064,-0.0042,-0.0068,-0.0035,-0.0023,-0.006,-0.0055,-0.0077,-0.0109,-0.0123,-0.0206,-0.0236,-0.0317,-0.0336,-0.0385,-0.0469,-0.0499,-0.0486,-0.0587,-0.0589,-0.0592,-0.0566,-0.0562,-0.0585,-0.0562,-0.0563,-0.0563,0,-0.0015,-0.0008,0.0028,0.0041,0.0045,0.0056,0.0069,0.0064,0.0025,-0.0004,-0.0055,-0.0115,-0.0179,-0.0251,-0.0371,-0.0358,-0.0443,-0.0512,-0.0516,-0.0555,-0.0602,-0.0612,-0.0589,-0.0786,-0.0565,-0.0565,-0.0565,0,0.0057,0.0068,0.0103,0.0105,0.0105,0.0122,0.0123,0.0104,0.0119,0.0074,0.0081,-0.0015,-0.0045,-0.0171,-0.0316,-0.0342,-0.0441,-0.0496,-0.0582,-0.0583,-0.0614,-0.0618,-0.0784,-0.0573,-0.0573,-0.0573,-0.0573,0,0.0118,0.015,0.014,0.0162,0.0216,0.0192,0.0241,0.0226,0.0223,0.0258,0.015,0.0164,-0.0027,-0.0108,-0.0264,-0.0412,-0.0401,-0.056,-0.059,-0.0584,-0.0585,-0.0786,-0.0911,-0.0574,-0.0574,-0.0574,-0.0574,0,0.0191,0.0183,0.0228,0.0239,0.0251,0.029,0.0322,0.0361,0.0339,0.0385,0.0381,0.0311,0.0207,0.0018,-0.0169,-0.0323,-0.0599,-0.0539,-0.0507,-0.0533,-0.0807,-0.0926,-0.114,-0.1227,-0.0636,-0.0637,-0.0637,0,0.0226,0.0255,0.0292,0.033,0.0337,0.0382,0.0424,0.0418,0.0465,0.0486,0.0529,0.0455,0.0424,0.015,-0.0134,-0.039,-0.0599,-0.0567,-0.0628,-0.0811,-0.0967,-0.107,-0.1134,-0.0632,-0.0632,-0.0633,-0.0633,0,0.0295,0.0308,0.0343,0.0418,0.0471,0.0526,0.0584,0.0644,0.0657,0.0704,0.0767,0.0752,0.0502,0.0263,-0.0098,-0.0305,-0.0726,-0.058,-0.0788,-0.0988,-0.1094,-0.1193,-0.0616,-0.0635,-0.0634,-0.0634,-0.0634,-0.0634,0.035,0.0388,0.0438,0.0512,0.0576,0.0663,0.0726,0.0807,0.0902,0.099,0.0964,0.0973,0.0609,0.0127,-0.0179,-0.0731,-0.0751,-0.0903,-0.1031,-0.1116,-0.1215,-0.0628,-0.0674,-0.0674,-0.0674,-0.0675,-0.0675,0,0.0415,0.0458,0.053,0.0614,0.0694,0.0712,0.0832,0.0905,0.1038,0.1132,0.1184,0.102,0.0547,0.0044,-0.0671,-0.1087,-0.1268,-0.1335,-0.1495,-0.1538,-0.1026,-0.104,-0.1145,-0.1145,-0.1145,-0.1144,-0.1144,-0.1144,0.0454,0.053,0.056,0.0696,0.076,0.087,0.0942,0.1066,0.1159,0.1267,0.1289,0.1277,0.0921,-0.0404,-0.1329,-0.1559,-0.1878,-0.1959,-0.2107,-0.178,-0.175,-0.1721,-0.1764,-0.2019,-0.202,-0.2559,-0.2565,-0.2569]}],[{"header":{"parameterUnit":"m.s-1","parameterCategory":2,"la1":30.2991,"la2":30.254,"lo1":-89.0895,"lo2":-89.0444,"dy":0.0017,"dx":0.0017,"nx":28,"ny":28,"refTime":"2024-12-14T03:00:00:Z","depth":"2","parameterNumber":2,"parameterNumberName":"U-component_of_CURRENTS"},"data":[0,0,0,0,0,0,0,0,0,0,0,0,0,0,0,0,0,0,0,0,0,0,0,0,0,0,0,0,0,0,0,0,0,0,0,0,0,0,0,0,0,0,0,0,0,0,0,0,0,0,0,0,0,0,0,0,0,0,0.2836,0.2836,0,0.2861,0.2861,0.2862,0.2873,0.2873,0.2873,0.2873,0.2898,0.2899,0.2899,0,0,0,0,0,0,0,0,0,0,0,0,0,0.2768,0.2769,0.2836,0.2836,0.2837,0.2861,0.2861,0.2862,0.2873,0.2873,0.2873,0.2873,0.2898,0.2899,0.2899,0,0,0,0,0,0,0,0,0,0,0,0,0,0.2795,0.277,0.2836,0.2846,0.2847,0.2861,0.2861,0.2862,0.2873,0.2873,0.2873,0.2873,0.2898,0.2899,0.29,0.2904,0,0,0.2902,0.2903,0,0,0,0,0,0,0,0,0.2793,0.2797,0.2844,0.2845,0.2846,0.2865,0.2847,0.2876,0.2873,0.2862,0.2873,0.2873,0.2887,0.2889,0.2893,0.2905,0.2906,0.2903,0.2903,0.2904,0.2904,0,0,0,0,0,0,0,0.2792,0.2796,0.2845,0.2844,0.2846,0.2839,0.2843,0.2852,0.2874,0.2863,0.2864,0.2868,0.2888,0.2892,0.2893,0.2907,0.2903,0.2903,0.2904,0.2904,0.2998,0.3,0,0,0,0,0,0,0.2792,0.2795,0.2844,0.2846,0.282,0.284,0.2845,0.2858,0.2873,0.2876,0.2868,0.2869,0.289,0.2892,0.2894,0.2956,0.2904,0.2904,0.2905,0.2996,0.2999,0.3001,0,0,0,0,0,0,0.279,0.2796,0.2843,0.2821,0.2826,0.2842,0.2856,0.2859,0.2877,0.2877,0.288,0.2886,0.289,0.2893,0.2926,0.2955,0.2905,0.2906,0.2994,0.2997,0.3,0.3044,0,0,0,0,0,0,0.2789,0.2796,0.2811,0.2821,0.2828,0.2868,0.2856,0.2859,0.2879,0.288,0.2893,0.2895,0.289,0.2925,0.2927,0.2955,0.2906,0.2992,0.2995,0.2999,0.304,0.3048,0.3054,0,0,0,0,0,0.2786,0.2797,0.2812,0.2818,0.2846,0.2869,0.2872,0.2881,0.288,0.2897,0.2909,0.2895,0.2949,0.2927,0.2929,0.2958,0.299,0.2994,0.2998,0.3036,0.3046,0.3054,0,0,0,0,0,0,0.2766,0.2799,0.2816,0.2835,0.2862,0.2871,0.2883,0.2892,0.2914,0.2918,0.2915,0.2918,0.2957,0.2957,0.2932,0.2999,0.2969,0.2974,0.2998,0.3007,0.3014,0.3011,0.2907,0,0,0,0,0,0.2773,0.2798,0.2825,0.2845,0.2858,0.2876,0.2888,0.2901,0.2917,0.2927,0.2938,0.2955,0.2974,0.299,0.3004,0.3039,0.3042,0.3063,0.307,0.3076,0.3078,0.3114,0.3125,0.3015,0.3015,0.3015,0,0,0.2771,0.2793,0.2807,0.2845,0.2863,0.2885,0.2884,0.291,0.2936,0.2926,0.2965,0.2978,0.2989,0.3029,0.3047,0.3034,0.3112,0.3081,0.3086,0.3085,0.312,0.313,0.314,0.3018,0.3017,0.3017,0,0,0.2774,0.2802,0.2824,0.2852,0.289,0.2901,0.2914,0.2942,0.2964,0.3004,0.3006,0.3039,0.3067,0.3085,0.3095,0.3154,0.3145,0.3165,0.3203,0.3239,0.3247,0.3255,0.3278,0.3288,0.3173,0.3173,0.3173,0,0.2773,0.2805,0.2833,0.2862,0.2883,0.291,0.2935,0.2962,0.3001,0.3026,0.3025,0.3087,0.3093,0.3144,0.3166,0.3169,0.3185,0.3164,0.3247,0.3254,0.3261,0.3283,0.3293,0.3176,0.3175,0.3175,0.3175,0,0.2795,0.2824,0.2838,0.2886,0.2913,0.2941,0.2981,0.3017,0.3042,0.3069,0.3133,0.3154,0.3189,0.3205,0.3201,0.3264,0.3257,0.3246,0.3218,0.3275,0.3295,0.3304,0.318,0.3179,0.3178,0.3177,0,0,0.2768,0.2842,0.2845,0.2875,0.2931,0.2952,0.3003,0.3055,0.3093,0.3143,0.3194,0.324,0.3257,0.3271,0.3283,0.3319,0.3382,0.331,0.331,0.3323,0.346,0.3439,0.3446,0.3388,0.3389,0.3391,0.3455,0,0.2776,0.2825,0.2864,0.291,0.2934,0.2987,0.3032,0.3087,0.3133,0.3191,0.3238,0.3288,0.3282,0.3309,0.3345,0.3376,0.3409,0.3365,0.3413,0.3414,0.3379,0.3457,0.3191,0.3225,0.3464,0.3465,0.3466,0,0.277,0.2807,0.2851,0.2926,0.2944,0.298,0.3055,0.3106,0.3192,0.3234,0.3296,0.333,0.3401,0.3381,0.3465,0.3441,0.3453,0.3471,0.3474,0.3442,0.341,0.3208,0.3233,0.3482,0.3481,0.3479,0.3478,0,0.2713,0.279,0.2823,0.2851,0.294,0.2978,0.3031,0.3115,0.316,0.3266,0.3306,0.3392,0.344,0.3483,0.3522,0.3503,0.3603,0.3576,0.3565,0.3563,0.334,0.3315,0.3624,0.3624,0.3624,0.3624,0.3624,0,0.2688,0.2715,0.2804,0.2825,0.2866,0.2953,0.3009,0.3077,0.3175,0.3225,0.3323,0.3376,0.347,0.3532,0.3552,0.3599,0.3628,0.3589,0.3589,0.335,0.3327,0.3545,0.3535,0.3626,0.3626,0.3625,0.3625,0,0.2611,0.2673,0.271,0.281,0.2835,0.2866,0.297,0.3017,0.3129,0.3198,0.3236,0.338,0.3483,0.3557,0.3641,0.3637,0.3681,0.3678,0.3395,0.3361,0.3606,0.3598,0.3686,0.3686,0.3686,0.3686,0.3686,0,0.2577,0.2586,0.2668,0.2684,0.2728,0.279,0.2829,0.2959,0.3014,0.3185,0.3213,0.3361,0.3438,0.3578,0.3611,0.3664,0.3693,0.3433,0.3352,0.3628,0.3618,0.361,0.3602,0.3066,0.3061,0.3057,0.3054,0,0.2499,0.2527,0.2562,0.2593,0.2632,0.2668,0.275,0.2777,0.2935,0.3013,0.3133,0.3222,0.3389,0.3356,0.3454,0.3437,0.3412,0.3354,0.3711,0.311,0.3054,0.3041,0.3051,0.3017,0.302,0.3023,0.3025,0.3027,0.243,0.2429,0.2472,0.2492,0.2528,0.2545,0.2542,0.2641,0.2704,0.2791,0.2959,0.3008,0.3107,0.3141,0.309,0.3062,0.3291,0.3138,0.3146,0.3159,0.3094,0.3043,0.299,0.2994,0.2997,0.2999,0.3002,0,0.2331,0.2355,0.2371,0.2392,0.238,0.2439,0.2479,0.2456,0.2483,0.2598,0.2682,0.2554,0.258,0.2661,0.2593,0.2654,0.2574,0.253,0.2385,0.2427,0.2463,0.2356,0.206,0.2056,0.2053,0.205,0,0,0.2285,0.2265,0.2276,0.2228,0.2246,0.219,0.2181,0.2171,0.2216,0.2207,0.2219,0.2419,0.2579,0.2258,0.2269,0.2142,0.2244,0.2061,0.2826,0.2695,0.2725,0.2843,0.2731,0,0,0,0,0]},{"header":{"parameterUnit":"m.s-1","parameterCategory":2,"la1":30.2991,"la2":30.254,"lo1":-89.0895,"lo2":-89.0444,"dy":0.0017,"dx":0.0017,"nx":28,"ny":28,"refTime":"2024-12-14T03:00:00:Z","depth":"2","parameterNumber":3,"parameterNumberName":"V-component_of_CURRENTS"},"data":[0,0,0,0,0,0,0,0,0,0,0,0,0,0,0,0,0,0,0,0,0,0,0,0,0,0,0,0,0,0,0,0,0,0,0,0,0,0,0,0,0,0,0,0,0,0,0,0,0,0,0,0,0,0,0,0,0,0,-0.0194,-0.0195,0,-0.0267,-0.0268,-0.0269,-0.0335,-0.0336,-0.0336,-0.0337,-0.0464,-0.0467,-0.0469,0,0,0,0,0,0,0,0,0,0,0,0,0,-0.0141,-0.0142,-0.0194,-0.0195,-0.0196,-0.0267,-0.0268,-0.0269,-0.0335,-0.0336,-0.0336,-0.0337,-0.0463,-0.0466,-0.047,0,0,0,0,0,0,0,0,0,0,0,0,0,-0.0187,-0.0142,-0.0194,-0.0235,-0.0239,-0.0267,-0.0268,-0.027,-0.0335,-0.0336,-0.0336,-0.0337,-0.0462,-0.0466,-0.047,-0.0482,0,0,-0.0483,-0.0485,0,0,0,0,0,0,0,0,-0.0184,-0.0189,-0.0228,-0.0232,-0.0237,-0.029,-0.0296,-0.0342,-0.0335,-0.0302,-0.0337,-0.0338,-0.0408,-0.0417,-0.0432,-0.0488,-0.0493,-0.0484,-0.0486,-0.0488,-0.049,0,0,0,0,0,0,0,-0.0181,-0.0186,-0.0226,-0.0229,-0.0234,-0.0259,-0.0266,-0.0305,-0.0353,-0.0305,-0.0309,-0.0312,-0.0411,-0.0428,-0.0436,-0.0495,-0.0484,-0.0488,-0.049,-0.0492,-0.0605,-0.0605,0,0,0,0,0,0,-0.0164,-0.0183,-0.0224,-0.0228,-0.0208,-0.0259,-0.0267,-0.0275,-0.0352,-0.0363,-0.0311,-0.0315,-0.042,-0.0431,-0.0441,-0.047,-0.0488,-0.0492,-0.0495,-0.0604,-0.0605,-0.0605,0,0,0,0,0,0,-0.0162,-0.0167,-0.0221,-0.0205,-0.0213,-0.0258,-0.0267,-0.0276,-0.0298,-0.0355,-0.0368,-0.0324,-0.0421,-0.0435,-0.0479,-0.0475,-0.0494,-0.0498,-0.0604,-0.0604,-0.0605,-0.0522,0,0,0,0,0,0,-0.016,-0.0166,-0.0168,-0.0204,-0.0213,-0.0234,-0.0266,-0.0276,-0.0297,-0.0303,-0.0371,-0.0383,-0.0423,-0.0472,-0.0484,-0.0482,-0.0502,-0.0603,-0.0604,-0.0605,-0.0525,-0.052,-0.0516,0,0,0,0,0,-0.0158,-0.0149,-0.0167,-0.0172,-0.0214,-0.0233,-0.0241,-0.0278,-0.0297,-0.0302,-0.0351,-0.0381,-0.0485,-0.0476,-0.0489,-0.0488,-0.0603,-0.0604,-0.0605,-0.0527,-0.0521,-0.0516,0,0,0,0,0,0,-0.0124,-0.0156,-0.0177,-0.0178,-0.0204,-0.0243,-0.0247,-0.0274,-0.0317,-0.0325,-0.0384,-0.0399,-0.0437,-0.0477,-0.0466,-0.0526,-0.055,-0.0554,-0.0486,-0.0482,-0.0478,-0.0457,-0.0505,0,0,0,0,0,-0.0117,-0.0123,-0.0157,-0.0159,-0.0168,-0.0209,-0.0222,-0.0248,-0.0286,-0.0306,-0.0355,-0.0409,-0.0449,-0.0476,-0.052,-0.0551,-0.0575,-0.0562,-0.0557,-0.0553,-0.0548,-0.0577,-0.0574,-0.0608,-0.0608,-0.0608,0,0,-0.0104,-0.0122,-0.0126,-0.0153,-0.0175,-0.0178,-0.022,-0.0234,-0.0243,-0.0313,-0.0344,-0.0394,-0.0455,-0.0488,-0.0509,-0.0522,-0.0557,-0.0554,-0.055,-0.0547,-0.0578,-0.0574,-0.0571,-0.0609,-0.0608,-0.0608,0,0,-0.0074,-0.0097,-0.0091,-0.0109,-0.0136,-0.0156,-0.0157,-0.02,-0.0226,-0.026,-0.0311,-0.0355,-0.0426,-0.0462,-0.049,-0.049,-0.0531,-0.0513,-0.0476,-0.0504,-0.0501,-0.0499,-0.0515,-0.0515,-0.0513,-0.0513,-0.0512,0,-0.0059,-0.0058,-0.0092,-0.009,-0.0093,-0.014,-0.0129,-0.0159,-0.0214,-0.0228,-0.0262,-0.0357,-0.0409,-0.0441,-0.0448,-0.0478,-0.0501,-0.0484,-0.0496,-0.0494,-0.0493,-0.051,-0.0511,-0.0509,-0.0509,-0.051,-0.051,0,-0.0028,-0.0028,-0.0022,-0.0035,-0.0042,-0.0041,-0.0076,-0.0095,-0.0131,-0.0165,-0.0213,-0.0289,-0.0341,-0.0371,-0.0413,-0.0433,-0.0453,-0.0481,-0.0499,-0.0484,-0.0504,-0.0506,-0.0503,-0.0505,-0.0506,-0.0507,0,0,0.0015,0.0001,0.0004,0.0011,-0.0012,-0.001,-0.0016,-0.0032,-0.0029,-0.0104,-0.0109,-0.0199,-0.0244,-0.028,-0.0341,-0.0379,-0.0392,-0.0426,-0.0429,-0.0425,-0.0448,-0.0461,-0.0465,-0.0422,-0.0422,-0.0422,-0.046,0,0.0051,0.0075,0.0057,0.0086,0.0101,0.0065,0.007,0.0046,0.0012,-0.0008,-0.0092,-0.0127,-0.0208,-0.0232,-0.0281,-0.0362,-0.0396,-0.0379,-0.0479,-0.0482,-0.0481,-0.0468,-0.0442,-0.0474,-0.0463,-0.0463,-0.0463,0,0.0095,0.0106,0.0142,0.0156,0.016,0.0168,0.018,0.0172,0.0133,0.01,0.0046,-0.0015,-0.0083,-0.0153,-0.0276,-0.0263,-0.0347,-0.0416,-0.0419,-0.0462,-0.0499,-0.0493,-0.0479,-0.0467,-0.0467,-0.0467,-0.0466,0,0.0158,0.0172,0.0209,0.021,0.0214,0.0225,0.0226,0.0207,0.0218,0.0169,0.0172,0.0075,0.004,-0.0084,-0.0231,-0.0253,-0.0361,-0.0404,-0.0493,-0.0495,-0.0508,-0.051,-0.0484,-0.0484,-0.0484,-0.0483,-0.0483,0,0.0212,0.024,0.024,0.0257,0.0307,0.0286,0.0327,0.0309,0.0306,0.0337,0.0232,0.0239,0.0053,-0.0031,-0.0184,-0.0336,-0.0322,-0.048,-0.0505,-0.0479,-0.0478,-0.0507,-0.0509,-0.0485,-0.0485,-0.0484,-0.0484,0,0.0273,0.0272,0.0314,0.0327,0.0338,0.037,0.0397,0.043,0.0408,0.0449,0.0443,0.0371,0.026,0.0077,-0.0109,-0.0256,-0.0412,-0.0471,-0.0422,-0.0442,-0.0539,-0.0537,-0.0571,-0.0572,-0.0572,-0.0573,-0.0573,0,0.0304,0.0334,0.0368,0.0404,0.0409,0.0448,0.0487,0.048,0.0524,0.0538,0.0578,0.0495,0.0454,0.0179,-0.0091,-0.0342,-0.039,-0.0491,-0.0537,-0.0526,-0.0548,-0.0545,-0.0542,-0.0519,-0.0519,-0.0519,-0.0519,0,0.0366,0.0377,0.0409,0.0479,0.0527,0.0579,0.063,0.0686,0.0699,0.0738,0.0789,0.0763,0.0513,0.0274,-0.0077,-0.0258,-0.0453,-0.0499,-0.0494,-0.0501,-0.0481,-0.0501,-0.0499,-0.0519,-0.0519,-0.0519,-0.0519,-0.0519,0.041,0.0445,0.0492,0.0559,0.062,0.0701,0.0755,0.0829,0.0914,0.0975,0.0952,0.0906,0.064,0.0196,-0.0104,-0.0439,-0.0435,-0.0561,-0.056,-0.0559,-0.0547,-0.0529,-0.0572,-0.0573,-0.0573,-0.0573,-0.0573,0,0.0467,0.0504,0.0571,0.0647,0.072,0.0741,0.0852,0.0907,0.102,0.1068,0.1096,0.0843,0.0581,0.0257,-0.0227,-0.0508,-0.054,-0.0606,-0.0577,-0.0575,-0.0573,-0.0562,-0.0592,-0.0593,-0.0594,-0.0595,0,0,0.0496,0.0563,0.0592,0.0714,0.0775,0.0868,0.0933,0.1016,0.1068,0.1117,0.109,0.1043,0.067,0.0326,-0.0049,-0.0325,-0.0397,-0.039,-0.0346,-0.0266,-0.0262,-0.0518,-0.0494,0,0,0,0,0]}],[{"header":{"parameterUnit":"m.s-1","parameterCategory":2,"la1":30.2991,"la2":30.254,"lo1":-89.0895,"lo2":-89.0444,"dy":0.0017,"dx":0.0017,"nx":28,"ny":28,"refTime":"2024-12-14T03:00:00:Z","depth":"4","parameterNumber":2,"parameterNumberName":"U-component_of_CURRENTS"},"data":[0,0,0,0,0,0,0,0,0,0,0,0,0,0,0,0,0,0,0,0,0,0,0,0,0,0,0,0,0,0,0,0,0,0,0,0,0,0,0,0,0,0,0,0,0,0,0,0,0,0,0,0,0,0,0,0,0,0,0.1701,0.1701,0,0.1758,0.1759,0.176,0.182,0.1821,0.1822,0.1823,0.1906,0.1908,0.1909,0,0,0,0,0,0,0,0,0,0,0,0,0,0.1626,0.1628,0.1701,0.1701,0.1702,0.1758,0.1759,0.176,0.182,0.1821,0.1822,0.1823,0.1906,0.1908,0.1909,0,0,0,0,0,0,0,0,0,0,0,0,0,0.1668,0.1628,0.17,0.174,0.1744,0.1758,0.1759,0.176,0.1819,0.1821,0.1822,0.1823,0.1905,0.1907,0.191,0.1895,0,0,0.1916,0.1917,0,0,0,0,0,0,0,0,0.1666,0.1671,0.1733,0.1737,0.1742,0.1784,0.1764,0.1807,0.1819,0.179,0.1823,0.1824,0.1867,0.1873,0.1879,0.1899,0.1902,0.1916,0.1917,0.1918,0.1919,0,0,0,0,0,0,0,0.1663,0.1668,0.1723,0.1734,0.1739,0.1749,0.1756,0.1772,0.182,0.1792,0.1797,0.1805,0.187,0.1877,0.1881,0.1904,0.1916,0.1918,0.1919,0.192,0.2032,0.2033,0,0,0,0,0,0,0.1657,0.1666,0.1721,0.1724,0.1707,0.1749,0.1757,0.1768,0.1819,0.1829,0.1803,0.1807,0.1873,0.1879,0.1885,0.1981,0.1918,0.192,0.1921,0.203,0.2032,0.2034,0,0,0,0,0,0,0.1655,0.1661,0.1719,0.1697,0.1705,0.1749,0.1761,0.1769,0.1816,0.1828,0.1837,0.1847,0.1874,0.1882,0.1937,0.198,0.1921,0.1923,0.2028,0.2031,0.2033,0.2102,0,0,0,0,0,0,0.1653,0.166,0.1683,0.1697,0.1706,0.1752,0.176,0.1769,0.1816,0.1823,0.1867,0.1874,0.1876,0.1934,0.1939,0.1982,0.1925,0.2026,0.2029,0.2032,0.2098,0.2107,0.2114,0,0,0,0,0,0.165,0.1667,0.1684,0.1692,0.1731,0.1753,0.176,0.1794,0.1817,0.1842,0.1878,0.1875,0.1959,0.1937,0.1943,0.1987,0.2024,0.2028,0.2032,0.2094,0.2105,0.2114,0,0,0,0,0,0,0.1646,0.1675,0.1694,0.1721,0.1749,0.1765,0.1794,0.1815,0.1862,0.1882,0.1895,0.1904,0.1969,0.1967,0.1943,0.2029,0.1992,0.1997,0.2037,0.2047,0.2055,0.2048,0.1926,0,0,0,0,0,0.1655,0.1681,0.1705,0.1732,0.175,0.178,0.1802,0.1826,0.1858,0.1882,0.1914,0.1948,0.1981,0.2007,0.203,0.2075,0.2078,0.2108,0.2116,0.2123,0.2121,0.2164,0.2176,0.2047,0.2047,0.2047,0,0,0.1658,0.1681,0.1696,0.1734,0.1761,0.179,0.1798,0.1841,0.1876,0.1882,0.1954,0.1981,0.2,0.2054,0.2083,0.2064,0.2166,0.2128,0.2134,0.2128,0.2169,0.2182,0.2193,0.2049,0.2049,0.2048,0,0,0.1669,0.1705,0.1728,0.1757,0.1805,0.1822,0.1843,0.1885,0.1922,0.1979,0.1999,0.2051,0.21,0.2123,0.2138,0.2204,0.2208,0.2225,0.2264,0.2307,0.2318,0.2327,0.2362,0.2374,0.223,0.223,0.223,0,0.1678,0.171,0.1739,0.1772,0.1801,0.1841,0.1874,0.191,0.1968,0.2003,0.2014,0.2108,0.2127,0.219,0.2219,0.2224,0.2249,0.2225,0.2318,0.2327,0.2335,0.2368,0.2381,0.2234,0.2233,0.2233,0.2233,0,0.1696,0.1738,0.1757,0.1811,0.1846,0.1883,0.193,0.1983,0.2032,0.2065,0.2152,0.2182,0.2237,0.2258,0.226,0.2339,0.234,0.2323,0.229,0.2353,0.2384,0.2395,0.2239,0.2238,0.2237,0.2236,0,0,0.1673,0.1753,0.1766,0.1801,0.1874,0.1899,0.197,0.2035,0.2091,0.2155,0.2225,0.2287,0.2317,0.2336,0.2357,0.2394,0.2482,0.2395,0.2395,0.2426,0.2588,0.2447,0.2446,0.2494,0.2497,0.2498,0.259,0,0.1684,0.1745,0.1786,0.1852,0.1887,0.1951,0.2011,0.2081,0.2144,0.2222,0.2273,0.2346,0.2344,0.239,0.2429,0.2472,0.2514,0.2459,0.2525,0.2526,0.239,0.2454,0.2505,0.2599,0.2601,0.2603,0.2604,0,0.1683,0.173,0.1795,0.1882,0.1906,0.1957,0.2064,0.212,0.2228,0.2285,0.2365,0.2408,0.2493,0.2473,0.2575,0.2549,0.2577,0.2596,0.26,0.2446,0.2405,0.252,0.2625,0.2623,0.2622,0.262,0.2619,0,0.1642,0.1733,0.1789,0.1819,0.1922,0.198,0.2043,0.215,0.2207,0.2336,0.2395,0.249,0.2557,0.2607,0.2659,0.2635,0.2756,0.272,0.2617,0.2608,0.2676,0.2665,0.2784,0.2784,0.2784,0.2783,0.2783,0,0.1618,0.1667,0.1784,0.1813,0.1889,0.1974,0.2061,0.2143,0.2258,0.2326,0.2431,0.2494,0.2599,0.2674,0.2697,0.2697,0.2793,0.263,0.2622,0.2705,0.2696,0.2685,0.2673,0.2787,0.2786,0.2785,0.2785,0,0.1555,0.1633,0.17,0.1826,0.187,0.1928,0.2058,0.2114,0.2244,0.2338,0.2387,0.2531,0.2627,0.2707,0.2799,0.2735,0.2753,0.273,0.2833,0.2828,0.2566,0.2556,0.2606,0.2602,0.2598,0.2595,0.2593,0,0.1522,0.1556,0.1692,0.1737,0.1801,0.1897,0.1959,0.2095,0.215,0.2336,0.2369,0.2518,0.2597,0.261,0.2709,0.2747,0.2718,0.2707,0.2605,0.256,0.2549,0.2544,0.2539,0.2587,0.2586,0.2585,0.2584,0,0.1458,0.1525,0.1582,0.1675,0.1752,0.1813,0.1915,0.1938,0.2092,0.2229,0.2292,0.2346,0.2453,0.2515,0.2575,0.2593,0.2696,0.2669,0.2675,0.2579,0.2538,0.2529,0.2528,0.2572,0.2574,0.2575,0.2575,0,0.1414,0.1436,0.1526,0.1589,0.1682,0.1711,0.1768,0.1835,0.1901,0.2098,0.212,0.2282,0.2423,0.2439,0.2494,0.2504,0.2456,0.2363,0.2384,0.2399,0.2289,0.2204,0.2135,0,0,0,0,0,0.1357,0.1371,0.143,0.149,0.1577,0.1623,0.1734,0.1793,0.1938,0.1928,0.2013,0.2099,0.2175,0.2264,0.2234,0.2418,0.2476,0.2374,0.2381,0.2503,0.2517,0.2408,0,0,0,0,0,0,0.1317,0.1372,0.1391,0.1398,0.1419,0.1489,0.1549,0.1644,0.1641,0.1799,0.1849,0.1977,0.2083,0.217,0.2194,0.2223,0.2186,0.2479,0.2474,0.2495,0.2508,0.2519,0.2412,0,0,0,0,0]},{"header":{"parameterUnit":"m.s-1","parameterCategory":2,"la1":30.2991,"la2":30.254,"lo1":-89.0895,"lo2":-89.0444,"dy":0.0017,"dx":0.0017,"nx":28,"ny":28,"refTime":"2024-12-14T03:00:00:Z","depth":"4","parameterNumber":3,"parameterNumberName":"V-component_of_CURRENTS"},"data":[0,0,0,0,0,0,0,0,0,0,0,0,0,0,0,0,0,0,0,0,0,0,0,0,0,0,0,0,0,0,0,0,0,0,0,0,0,0,0,0,0,0,0,0,0,0,0,0,0,0,0,0,0,0,0,0,0,0,0.0063,0.0062,0,0.0016,0.0015,0.0015,-0.002,-0.002,-0.0021,-0.0021,-0.008,-0.0081,-0.0082,0,0,0,0,0,0,0,0,0,0,0,0,0,0.0082,0.0082,0.0063,0.0062,0.0062,0.0016,0.0015,0.0015,-0.002,-0.002,-0.0021,-0.0021,-0.0079,-0.0081,-0.0083,0,0,0,0,0,0,0,0,0,0,0,0,0,0.0058,0.0082,0.0063,0.0039,0.0037,0.0016,0.0015,0.0014,-0.002,-0.002,-0.0021,-0.0021,-0.0079,-0.0081,-0.0083,-0.0088,0,0,-0.0089,-0.009,0,0,0,0,0,0,0,0,0.0059,0.0057,0.0043,0.0041,0.0038,0.0004,0.0001,-0.002,-0.002,0.0001,-0.0021,-0.0021,-0.0052,-0.0056,-0.0065,-0.0091,-0.0093,-0.0089,-0.009,-0.0091,-0.0092,0,0,0,0,0,0,0,0.0061,0.0059,0.0043,0.0043,0.004,0.0018,0.0014,-0.0004,-0.0024,-0.0001,-0.0003,-0.0007,-0.0054,-0.0063,-0.0067,-0.0094,-0.0089,-0.0091,-0.0092,-0.0093,-0.0129,-0.0129,0,0,0,0,0,0,0.0071,0.0061,0.0045,0.0042,0.0049,0.0018,0.0014,0.0015,-0.0023,-0.0029,-0.0007,-0.0009,-0.006,-0.0064,-0.0069,-0.0074,-0.0091,-0.0093,-0.0094,-0.0129,-0.0129,-0.0129,0,0,0,0,0,0,0.0072,0.007,0.0047,0.005,0.0046,0.0018,0.0019,0.0014,0.0004,-0.0028,-0.0034,-0.0011,-0.006,-0.0066,-0.0083,-0.0077,-0.0094,-0.0096,-0.0129,-0.0129,-0.0129,-0.0086,0,0,0,0,0,0,0.0072,0.0071,0.0074,0.0051,0.0046,0.004,0.002,0.0013,0.0003,-0.0,-0.0034,-0.004,-0.0061,-0.008,-0.0085,-0.008,-0.0097,-0.013,-0.0129,-0.0129,-0.0088,-0.0085,-0.0082,0,0,0,0,0,0.0073,0.0084,0.0075,0.0073,0.0052,0.004,0.0036,0.0014,0.0003,0.0003,-0.0021,-0.0038,-0.0081,-0.0082,-0.0088,-0.0083,-0.013,-0.0129,-0.0129,-0.009,-0.0085,-0.0082,0,0,0,0,0,0,0.0096,0.0081,0.007,0.0076,0.0061,0.0035,0.0034,0.0017,-0.0002,-0.0004,-0.0037,-0.0044,-0.0057,-0.0075,-0.0075,-0.0092,-0.0108,-0.0108,-0.0076,-0.0072,-0.0069,-0.0055,-0.0099,0,0,0,0,0,0.0103,0.0106,0.0085,0.009,0.0085,0.0059,0.0051,0.0037,0.0017,0.0008,-0.0016,-0.004,-0.006,-0.0069,-0.009,-0.0098,-0.0126,-0.0098,-0.0095,-0.0092,-0.0085,-0.0127,-0.0127,-0.0127,-0.0127,-0.0127,0,0,0.0114,0.0105,0.0108,0.0095,0.0082,0.0082,0.0054,0.0047,0.0047,0.0005,-0.0003,-0.0031,-0.006,-0.0071,-0.0078,-0.0084,-0.0108,-0.0091,-0.0089,-0.0083,-0.0126,-0.0126,-0.0126,-0.0126,-0.0126,-0.0126,0,0,0.0139,0.013,0.014,0.0131,0.0115,0.0101,0.0101,0.0076,0.0065,0.0054,0.0023,-0.0,-0.0027,-0.0049,-0.0062,-0.0052,-0.0091,-0.0059,-0.003,-0.0071,-0.0071,-0.0072,-0.0111,-0.0116,-0.0055,-0.0055,-0.0055,0,0.0152,0.0161,0.0141,0.0146,0.0145,0.0113,0.0124,0.0109,0.0081,0.0074,0.0059,0.0012,-0.0015,-0.0031,-0.0029,-0.0045,-0.0075,-0.0042,-0.0066,-0.0068,-0.0069,-0.011,-0.0115,-0.0053,-0.0053,-0.0054,-0.0054,0,0.018,0.0187,0.0193,0.0191,0.0188,0.0192,0.0171,0.0164,0.0145,0.0125,0.0102,0.0061,0.0033,0.002,-0.0002,-0.0022,-0.0043,-0.006,-0.0075,-0.0067,-0.011,-0.0117,-0.005,-0.0051,-0.0052,-0.0052,0,0,0.021,0.0214,0.0216,0.0225,0.0213,0.0216,0.0218,0.0208,0.021,0.0174,0.0169,0.0127,0.0095,0.0078,0.0042,0.0009,-0.0032,-0.0025,-0.0028,-0.0062,-0.0125,-0.0126,-0.0134,-0.0057,-0.0057,-0.0058,-0.0153,0,0.0237,0.0263,0.0256,0.0283,0.0294,0.0274,0.0281,0.0267,0.0247,0.0232,0.0183,0.0163,0.012,0.0107,0.0065,-0.0005,-0.0047,-0.0005,-0.013,-0.0134,-0.0134,-0.0141,-0.0061,-0.0158,-0.0159,-0.0161,-0.0161,0,0.0264,0.0279,0.031,0.0331,0.0335,0.0346,0.0352,0.0354,0.0324,0.0305,0.0269,0.0227,0.0175,0.0137,0.0018,0.0045,-0.0035,-0.0093,-0.0099,-0.0117,-0.0147,-0.0169,-0.0174,-0.0173,-0.0172,-0.0171,-0.017,0,0.0292,0.0318,0.0348,0.0353,0.0367,0.0381,0.0389,0.0374,0.0383,0.0349,0.0346,0.0271,0.0238,0.0133,0.0012,0.0011,-0.0123,-0.0143,-0.0222,-0.0223,-0.0213,-0.0211,-0.0232,-0.0232,-0.0232,-0.0232,-0.0231,0,0.0319,0.0344,0.0364,0.0379,0.0419,0.0417,0.0449,0.0443,0.0438,0.0451,0.0385,0.0374,0.0235,0.0145,0.0026,-0.0115,-0.0119,-0.0217,-0.0247,-0.0193,-0.0188,-0.0218,-0.0215,-0.0235,-0.0235,-0.0234,-0.0233,0,0.0337,0.035,0.0388,0.0417,0.0431,0.0458,0.0495,0.0516,0.0505,0.0521,0.0515,0.0442,0.0326,0.0181,0.0009,-0.0089,-0.0227,-0.0279,-0.0207,-0.0232,-0.0306,-0.03,-0.0376,-0.0377,-0.0377,-0.0378,-0.0379,0,0.0348,0.0368,0.0416,0.0444,0.0459,0.0499,0.053,0.0543,0.0566,0.0563,0.0573,0.048,0.0411,0.0176,0.0012,-0.0216,-0.0251,-0.0327,-0.032,-0.0299,-0.0321,-0.0313,-0.0306,-0.038,-0.038,-0.038,-0.038,0,0.0365,0.0381,0.0411,0.0469,0.0511,0.0559,0.0603,0.0628,0.0646,0.0645,0.0621,0.0506,0.0374,0.0186,0.0008,-0.0157,-0.0277,-0.0334,-0.0334,-0.0329,-0.0305,-0.0324,-0.0316,-0.0383,-0.0382,-0.0382,-0.0382,0,0.0376,0.0398,0.0438,0.0488,0.0546,0.0597,0.0622,0.0652,0.0675,0.0677,0.0667,0.0531,0.0452,0.0216,0.0053,-0.0109,-0.0155,-0.021,-0.0218,-0.0217,-0.0143,-0.0088,-0.0124,0,0,0,0,0,0.0383,0.0405,0.0454,0.0507,0.0567,0.0598,0.0662,0.0683,0.0708,0.0702,0.0688,0.0569,0.034,0.0243,0.0081,0.0018,-0.0198,-0.0179,-0.0269,-0.0396,-0.0393,-0.0334,0,0,0,0,0,0,0.0383,0.0426,0.0447,0.0513,0.0551,0.0616,0.0657,0.0679,0.0675,0.0683,0.0568,0.052,0.0297,0.0431,0.0075,0.0026,-0.0055,-0.0283,-0.0287,-0.0397,-0.0395,-0.0393,-0.0331,0,0,0,0,0]}]]